DW8622 Weather Reports


time (UTC)temp
F
wind
direction
speed
knots
gust
knots
rain 1hr
in
rain 24hr
in
rain mn
in
humidity
%
barometer
mb
20260507084006 59 319 1.7 6.1 0.00 0.00 0.00 69 1015.6
20260507083006 58 337 0.9 5.2 0.00 0.00 0.00 69 1015.6
20260507082506 58 321 0.9 5.2 0.00 0.00 0.00 71 1015.6
20260507082006 57 326 0.9 7.8 0.00 0.00 0.00 69 1015.6
20260507081506 57 330 0.9 7.8 0.00 0.00 0.00 70 1015.7
20260507081006 57 338 0.0 6.1 0.00 0.00 0.00 71 1015.7
20260507080506 57 0 0.0 0.0 0.00 0.00 0.00 73 1015.6
20260507075017 56 19 0.0 4.3 0.00 0.00 0.00 74 1015.5
20260507074506 56 359 0.9 4.3 0.00 0.00 0.00 75 1015.5
20260507074006 56 351 0.9 4.3 0.00 0.00 0.00 75 1015.5
20260507073506 55 19 0.9 5.2 0.00 0.00 0.00 75 1015.5
20260507073007 55 17 0.9 5.2 0.00 0.00 0.00 76 1015.4
20260507072506 54 349 0.9 4.3 0.00 0.00 0.00 78 1015.4
20260507072006 54 337 0.9 4.3 0.00 0.00 0.00 79 1015.4
20260507071506 53 333 0.0 3.5 0.00 0.00 0.00 82 1015.3
20260507071007 52 321 0.0 3.5 0.00 0.00 0.00 83 1015.4
20260507070506 52 11 0.0 0.9 0.00 0.00 0.00 84 1015.4
20260507065007 51 323 0.9 7.0 0.00 0.00 0.00 87 1015.4
20260507064006 50 328 1.7 7.0 0.00 0.00 0.00 89 1015.2
20260507063506 49 323 0.9 7.0 0.00 0.00 0.00 90 1015.2
20260507063006 49 303 0.9 5.2 0.00 0.00 0.00 90 1015.2
20260507062506 48 241 0.0 3.5 0.00 0.00 0.00 91 1015.2
20260507061506 48 0 0.0 0.0 0.00 0.00 0.00 91 1015.2
20260507060506 48 0 0.0 0.0 0.00 0.00 0.00 91 1015.2
20260507054507 46 0 0.0 0.0 0.00 0.00 0.00 93 1015.0
20260507054006 46 0 0.0 0.0 0.00 0.00 0.00 93 1014.9
20260507053006 46 0 0.0 0.0 0.00 0.00 0.00 93 1014.9
20260507052507 46 0 0.0 0.0 0.00 0.00 0.00 93 1014.9
20260507052006 45 0 0.0 0.0 0.00 0.00 0.00 93 1014.8
20260507051506 45 0 0.0 0.0 0.00 0.00 0.00 93 1014.7
20260507051007 45 0 0.0 0.0 0.00 0.00 0.00 93 1014.7
20260507050506 45 0 0.0 0.0 0.00 0.00 0.00 93 1014.6
20260507050006 45 0 0.0 0.0 0.00 0.00 0.00 93 1014.6
20260507045507 44 0 0.0 0.0 0.00 0.00 0.00 93 1014.5
20260507044506 44 0 0.0 0.0 0.00 0.00 0.00 93 1014.4
20260507044006 44 0 0.0 0.0 0.00 0.00 0.00 93 1014.3
20260507043507 44 0 0.0 0.0 0.00 0.00 0.00 93 1014.3
20260507043006 44 0 0.0 0.0 0.00 0.00 0.00 93 1014.3
20260507042506 44 0 0.0 0.0 0.00 0.00 0.00 93 1014.2
20260507041007 44 0 0.0 0.0 0.00 0.00 0.00 93 1014.2
20260507040506 44 0 0.0 0.0 0.00 0.00 0.00 93 1014.2
20260507040007 44 0 0.0 0.0 0.00 0.00 0.00 93 1014.1
20260507035506 44 0 0.0 0.0 0.00 0.00 0.00 93 1014.0
20260507034506 44 0 0.0 0.0 0.00 0.00 0.00 93 1014.0
20260507034006 44 0 0.0 0.0 0.00 0.00 0.00 93 1014.0
20260507033508 44 0 0.0 0.0 0.00 0.00 0.00 92 1014.0
20260507033006 44 0 0.0 0.0 0.00 0.00 0.00 93 1014.0
20260507032006 45 0 0.0 0.0 0.00 0.00 0.00 92 1014.0
20260507031507 45 0 0.0 0.0 0.00 0.00 0.00 92 1013.9
20260507031007 45 0 0.0 0.0 0.00 0.00 0.00 92 1013.9
20260507030006 45 0 0.0 0.0 0.00 0.00 0.00 92 1013.8
20260507025507 45 0 0.0 0.0 0.00 0.00 0.00 92 1013.8
20260507024506 45 0 0.0 0.0 0.00 0.00 0.00 92 1013.8
20260507024006 45 0 0.0 0.0 0.00 0.00 0.00 91 1013.8
20260507023506 45 0 0.0 0.0 0.00 0.00 0.00 91 1013.7
20260507022506 45 0 0.0 0.0 0.00 0.00 0.00 91 1013.7
20260507022007 46 0 0.0 0.0 0.00 0.00 0.00 91 1013.6
20260507021006 46 0 0.0 0.0 0.00 0.00 0.00 91 1013.6
20260507020503 46 0 0.0 0.0 0.00 0.00 0.00 90 1013.5
20260507015506 46 0 0.0 0.0 0.00 0.00 0.00 90 1013.4
20260507015006 46 0 0.0 0.0 0.00 0.00 0.00 90 1013.4
20260507014008 47 0 0.0 0.0 0.00 0.00 0.00 90 1013.4
20260507013521 47 0 0.0 0.0 0.00 0.00 0.00 89 1013.4
20260507013006 47 0 0.0 0.0 0.00 0.00 0.00 89 1013.4
20260507012506 47 0 0.0 0.0 0.00 0.00 0.00 89 1013.4
20260507012006 47 0 0.0 0.0 0.00 0.00 0.00 89 1013.3
20260507011506 47 0 0.0 0.0 0.00 0.00 0.00 88 1013.3
20260507010507 48 0 0.0 0.0 0.00 0.00 0.00 88 1013.2
20260507010006 48 0 0.0 0.0 0.00 0.00 0.00 88 1013.2
20260507005506 48 0 0.0 0.0 0.00 0.00 0.00 88 1013.2
20260507005007 48 0 0.0 0.0 0.00 0.00 0.00 88 1013.2
20260507004506 48 0 0.0 0.0 0.00 0.00 0.00 88 1013.1
20260507004006 48 344 0.0 3.5 0.00 0.00 0.00 87 1013.1
20260507003006 48 0 0.0 0.0 0.00 0.00 0.00 87 1013.1
20260507002505 49 0 0.0 0.0 0.00 0.00 0.00 86 1013.0
20260507002005 49 0 0.0 0.0 0.00 0.00 0.00 86 1013.0
20260507001505 49 0 0.0 0.0 0.00 0.00 0.00 86 1013.0
20260507001005 49 0 0.0 0.0 0.00 0.00 0.00 86 1013.0
20260507000505 49 0 0.0 0.0 0.00 0.00 0.00 85 1012.9
20260507000005 49 0 0.0 0.0 0.00 0.00 0.00 85 1012.9
20260506235505 50 342 0.0 4.3 0.00 0.00 0.00 85 1012.9
20260506235005 50 340 0.9 7.0 0.00 0.00 0.00 84 1012.9
20260506234506 50 336 0.9 7.8 0.00 0.00 0.00 84 1012.9
20260506234005 50 338 0.9 7.8 0.00 0.00 0.00 84 1012.8
20260506233505 50 342 0.9 5.2 0.00 0.00 0.00 83 1012.7
20260506233005 50 337 0.9 7.8 0.00 0.00 0.00 83 1012.7
20260506232505 51 331 0.9 7.8 0.00 0.00 0.00 82 1012.7
20260506232006 51 332 0.0 3.5 0.00 0.00 0.00 82 1012.7
20260506231505 51 0 0.0 0.0 0.00 0.00 0.00 82 1012.7
20260506231005 51 0 0.0 0.0 0.00 0.00 0.00 81 1012.6
20260506230506 51 0 0.0 0.0 0.00 0.00 0.00 81 1012.7
20260506225506 51 0 0.0 0.0 0.00 0.00 0.00 80 1012.6
20260506225005 52 0 0.0 0.0 0.00 0.00 0.00 80 1012.6
20260506224507 52 0 0.0 0.0 0.00 0.00 0.00 79 1012.5
20260506224005 52 0 0.0 0.0 0.00 0.00 0.00 79 1012.5
20260506223505 52 0 0.0 0.0 0.00 0.00 0.00 79 1012.6
20260506223005 52 0 0.0 0.0 0.00 0.00 0.00 78 1012.6
20260506222005 53 0 0.0 0.0 0.00 0.00 0.00 77 1012.6
20260506221505 53 0 0.0 0.0 0.00 0.00 0.00 77 1012.5
20260506221005 53 354 0.0 4.3 0.00 0.00 0.00 77 1012.5
20260506220505 53 353 0.9 4.3 0.00 0.00 0.00 77 1012.4
20260506220005 53 347 0.9 7.0 0.00 0.00 0.00 76 1012.4
20260506215505 53 343 0.9 7.0 0.00 0.00 0.00 76 1012.4
20260506215007 53 341 1.7 5.2 0.00 0.00 0.00 76 1012.3
20260506214505 53 345 1.7 7.8 0.00 0.00 0.00 76 1012.3
20260506214005 53 350 0.9 7.8 0.00 0.00 0.00 76 1012.2
20260506213520 53 349 0.9 6.1 0.00 0.00 0.00 75 1012.2
20260506213005 53 343 1.7 5.2 0.00 0.00 0.00 75 1012.2
20260506212505 53 344 1.7 7.0 0.00 0.00 0.00 75 1012.2
20260506212005 53 351 0.9 7.0 0.00 0.00 0.00 75 1012.1
20260506211505 54 340 0.9 7.8 0.00 0.00 0.00 75 1012.1
20260506211005 54 335 0.9 7.8 0.00 0.00 0.00 76 1012.0
20260506210505 54 0 0.0 0.0 0.00 0.00 0.00 77 1012.0
20260506205505 54 343 0.0 4.3 0.00 0.00 0.00 77 1012.0
20260506205005 54 343 0.0 4.3 0.00 0.00 0.00 77 1012.0
20260506204507 54 0 0.0 0.0 0.00 0.00 0.00 76 1011.9
20260506203505 54 0 0.0 0.0 0.00 0.00 0.00 75 1011.9
20260506203005 54 0 0.0 0.0 0.00 0.00 0.00 75 1011.9
20260506202505 54 332 0.0 5.2 0.00 0.00 0.00 75 1011.8
20260506202005 54 330 0.9 5.2 0.00 0.00 0.00 75 1011.8
20260506201505 53 328 1.7 6.1 0.00 0.00 0.00 75 1011.8
20260506201005 53 327 0.9 6.1 0.00 0.00 0.00 75 1011.8
20260506200505 53 326 0.0 4.3 0.00 0.00 0.00 76 1011.7
20260506200005 53 0 0.0 0.0 0.00 0.00 0.00 75 1011.6
20260506195504 53 0 0.0 0.0 0.00 0.00 0.00 75 1011.6
20260506195005 54 0 0.0 0.0 0.00 0.00 0.00 74 1011.6
20260506194005 54 32 1.7 4.3 0.00 0.00 0.00 72 1011.5
20260506193505 54 28 2.6 4.3 0.00 0.00 0.00 71 1011.5
20260506193005 54 23 3.5 8.7 0.00 0.00 0.00 70 1011.5
20260506192505 54 20 3.5 8.7 0.00 0.00 0.00 69 1011.4
20260506191507 54 23 3.5 8.7 0.00 0.00 0.00 71 1011.2
20260506191005 54 23 0.9 7.8 0.00 0.00 0.00 72 1011.2
20260506190505 54 33 0.0 3.5 0.00 0.00 0.00 73 1011.1
20260506190006 54 0 0.0 0.0 0.00 0.00 0.00 74 1011.1
20260506184505 54 0 0.0 0.0 0.00 0.00 0.00 74 1010.8
20260506184006 54 0 0.0 0.0 0.00 0.00 0.00 72 1010.7
20260506183006 55 0 0.0 0.0 0.00 0.00 0.00 72 1010.7
20260506182505 54 0 0.0 0.0 0.00 0.00 0.00 69 1010.7
20260506182005 55 0 0.0 0.0 0.00 0.00 0.00 70 1010.5
20260506181506 54 0 0.0 0.0 0.00 0.00 0.00 69 1010.5
20260506181005 55 0 0.0 0.0 0.00 0.00 0.00 70 1010.5
20260506180507 55 0 0.0 0.0 0.00 0.00 0.00 70 1010.4
20260506180006 55 284 0.0 0.9 0.00 0.00 0.00 70 1010.3
20260506175506 55 284 0.0 0.9 0.00 0.00 0.00 70 1010.3
20260506175006 55 0 0.0 0.0 0.00 0.00 0.00 71 1010.3
20260506174521 55 0 0.0 0.0 0.00 0.00 0.00 70 1010.2
20260506174005 55 0 0.0 0.0 0.00 0.00 0.00 68 1010.1
20260506173507 55 0 0.0 0.0 0.00 0.00 0.00 69 1010.0
20260506172505 55 0 0.0 0.0 0.00 0.00 0.00 70 1009.9
20260506172006 56 0 0.0 0.0 0.00 0.00 0.00 70 1009.9
20260506171505 56 0 0.0 0.0 0.00 0.00 0.00 70 1009.9
20260506170505 56 49 1.7 5.2 0.00 0.00 0.00 69 1009.8
20260506170006 56 41 2.6 5.2 0.00 0.00 0.00 67 1009.8
20260506165506 56 35 2.6 4.3 0.00 0.00 0.00 66 1009.8
20260506164505 56 40 2.6 5.2 0.00 0.00 0.00 66 1009.8
20260506164005 56 44 2.6 6.1 0.00 0.00 0.00 67 1009.8
20260506163506 56 41 3.5 7.8 0.00 0.00 0.00 66 1009.8
20260506163005 56 37 4.3 7.8 0.00 0.00 0.00 65 1009.8
20260506162505 57 35 4.3 7.0 0.00 0.00 0.00 66 1009.8
20260506161506 57 29 5.2 8.7 0.00 0.00 0.00 63 1009.7
20260506161006 57 26 5.2 7.8 0.00 0.00 0.00 63 1009.7
20260506160505 57 25 5.2 8.7 0.00 0.00 0.00 63 1009.7
20260506160005 57 25 6.1 8.7 0.00 0.00 0.00 62 1009.8
20260506155506 57 25 5.2 8.7 0.00 0.00 0.00 63 1009.8
20260506155006 57 23 4.3 8.7 0.00 0.00 0.00 62 1009.8
20260506154506 57 19 3.5 7.8 0.00 0.00 0.00 62 1009.8
20260506154005 57 21 2.6 6.1 0.00 0.00 0.00 62 1009.8
20260506153005 57 36 4.3 7.8 0.00 0.00 0.00 65 1009.7
20260506152505 57 42 5.2 9.6 0.00 0.00 0.00 66 1009.8
20260506152005 57 39 5.2 9.6 0.00 0.00 0.00 65 1009.7
20260506151006 57 25 5.2 9.6 0.00 0.00 0.00 64 1009.7
20260506150506 57 26 5.2 9.6 0.00 0.00 0.00 62 1009.7
20260506145006 57 24 4.3 9.6 0.00 0.00 0.00 62 1009.6
20260506144006 58 26 6.1 8.7 0.00 0.00 0.00 64 1009.6
20260506143506 58 24 7.0 11.3 0.00 0.00 0.00 62 1009.6
20260506143005 58 25 7.8 11.3 0.00 0.00 0.00 61 1009.6
20260506142505 58 28 7.8 12.2 0.00 0.00 0.00 62 1009.6
20260506142005 58 28 8.7 13.0 0.00 0.00 0.00 60 1009.5
20260506141005 59 26 7.0 11.3 0.00 0.00 0.00 60 1009.5
20260506140505 59 28 7.8 11.3 0.00 0.00 0.00 59 1009.5
20260506140005 59 30 7.8 11.3 0.00 0.00 0.00 59 1009.5
20260506135505 59 26 7.8 12.2 0.00 0.00 0.00 59 1009.5
20260506135006 59 22 6.1 12.2 0.00 0.00 0.00 56 1009.4
20260506134006 59 16 5.2 11.3 0.00 0.00 0.00 54 1009.5
20260506133505 60 23 6.1 12.2 0.00 0.00 0.00 57 1009.5
20260506133005 60 22 7.8 12.2 0.00 0.00 0.00 56 1009.4
20260506132505 60 21 7.8 12.2 0.00 0.00 0.00 55 1009.3
20260506132005 61 16 6.1 12.2 0.00 0.00 0.00 56 1009.2
20260506131505 61 16 6.1 12.2 0.00 0.00 0.00 58 1009.2
20260506131005 61 18 6.1 12.2 0.00 0.00 0.00 56 1009.2
20260506130006 60 22 6.1 11.3 0.00 0.00 0.00 63 1009.1
20260506125507 59 22 6.1 11.3 0.00 0.00 0.00 63 1009.2
20260506125005 58 21 5.2 11.3 0.00 0.00 0.00 65 1009.2
20260506124505 58 17 4.3 11.3 0.00 0.00 0.00 65 1009.1
20260506124005 58 8 2.6 7.0 0.00 0.00 0.00 65 1009.0
20260506123506 58 12 3.5 8.7 0.00 0.00 0.00 65 1009.0
20260506123005 58 17 4.3 8.7 0.00 0.00 0.00 66 1009.0
20260506122005 58 9 4.3 10.4 0.00 0.00 0.00 66 1009.0
20260506121005 58 5 3.5 8.7 0.00 0.00 0.00 68 1009.0
20260506120005 57 3 3.5 7.8 0.00 0.00 0.00 68 1009.0
20260506115505 57 357 3.5 8.7 0.00 0.00 0.00 67 1009.0
20260506115005 57 6 3.5 8.7 0.00 0.00 0.00 68 1009.0
20260506114505 57 355 3.5 10.4 0.00 0.00 0.00 69 1009.0
20260506114005 57 345 4.3 10.4 0.00 0.00 0.00 69 1009.0
20260506113006 57 359 3.5 9.6 0.00 0.00 0.00 70 1009.1
20260506112505 57 2 4.3 9.6 0.00 0.00 0.00 71 1009.1
20260506112005 58 4 4.3 9.6 0.00 0.00 0.00 70 1009.0
20260506111505 58 2 5.2 10.4 0.00 0.00 0.00 70 1009.0
20260506111003 58 6 5.2 10.4 0.00 0.00 0.00 70 1008.9
20260506110505 58 9 5.2 10.4 0.00 0.00 0.00 71 1008.9
20260506110005 58 8 4.3 9.6 0.00 0.00 0.00 71 1008.9
20260506105005 59 10 5.2 10.4 0.00 0.00 0.00 70 1008.9
20260506104505 59 14 5.2 10.4 0.00 0.00 0.00 69 1008.9
20260506104005 58 7 4.3 10.4 0.00 0.00 0.00 69 1008.9
20260506103005 58 342 4.3 10.4 0.00 0.00 0.00 67 1008.8
20260506101505 60 355 3.5 11.3 0.00 0.00 0.00 64 1008.8
20260506101005 61 342 4.3 11.3 0.00 0.00 0.00 61 1008.7
20260506100505 62 345 5.2 10.4 0.00 0.00 0.00 58 1008.6
20260506100006 63 7 6.1 10.4 0.00 0.00 0.00 60 1008.6
20260506095507 62 16 7.0 11.3 0.00 0.00 0.00 63 1008.6
20260506095005 62 12 7.0 12.2 0.00 0.00 0.00 63 1008.6
20260506094506 61 14 6.1 12.2 0.00 0.00 0.00 61 1008.6
20260506094005 62 13 6.1 10.4 0.00 0.00 0.00 62 1008.5
20260506093506 62 14 6.1 11.3 0.00 0.00 0.00 65 1008.4
20260506093005 61 16 7.0 12.2 0.00 0.00 0.00 63 1008.6
20260506092505 60 15 7.0 12.2 0.00 0.00 0.00 64 1008.6
20260506092005 60 15 6.1 12.2 0.00 0.00 0.00 64 1008.5
20260506091505 60 11 5.2 12.2 0.00 0.00 0.00 64 1008.5
20260506091006 60 5 4.3 9.6 0.00 0.00 0.00 67 1008.5
20260506090006 58 14 5.2 11.3 0.00 0.00 0.00 70 1008.4
20260506085505 58 10 4.3 8.7 0.00 0.00 0.00 71 1008.4